Location: ??
(35.5052°N, 139.7262°E)
Time: 03:38:52
(UTC+00:00)

NOSS 3-4 (C) - Pass Details

Date: 20 June 2021
Orbit: 868 x 1344 km, 63.4° (Epoch: 23 July)

Event Time Altitude Azimuth Distance (km) Brightness Sun altitude
Exits shadow 18:27:23 11° 208° (SSW) 2,424 5.0 -10.7°
Maximum altitude 18:32:55 87° 120° (ESE) 887 3.3 -9.8°
Drops below altitude 10° 18:38:57 10° 32° (NNE) 2,630 7.1 -8.8°
Sets 18:41:35 0° 32° (NNE) 3,630 8.0 -8.4°
